Regional Weather Roundup
Issued by NWS Wakefield, VA

Home | Current Version | Previous Version | Graphics & Text | Print | Product List | Glossary On
Versions: 1 2 3 4 5 6 7 8 9 10 11 12 13 14 15 16 17 18 19 20 21 22 23 24 25 26 27
000
ASUS41 KAKQ 271016
RWRAKQ

REGIONAL WEATHER ROUNDUP
NATIONAL WEATHER SERVICE WAKEFIELD VA
600 AM EDT MON MAR 27 2017

Note: "fair" indicates few or no clouds below 12,000 feet with no
significant weather and/or obstructions to visibility. * = Denotes
station may not report precipitation (e.g., rain,snow,etc.),
thunder or fog.

VAZ042-051-052>054-056-271100-
NORTHERN VIRGINIA

CITY           SKY/WX    TMP DP  RH WIND       PRES   REMARKS
WASH NATIONAL    N/A     48  47  96 CALM      30.11S FOG
DULLES         DRZL/FOG  46  45  96 CALM      30.11R VSB 1/2
FORT BELVOIR   FOG       46  46 100 CALM      30.10S VSB 1
QUANTICO       FOG       48  48 100 E3        30.11S VSB 1/2
FREDERICKSBRG* FOG       49  49 100 CALM      30.09S VSB 1/4
STAFFORD*      FOG       47  47 100 CALM      30.13F VSB 1/4
WARRENTON      FOG       48  46  91 CALM      30.09R VSB 1/2
CULPEPER*      FOG       49  49 100 CALM      30.11R VSB 1/2
MANASSAS*      LGT RAIN  46  46 100 CALM      30.11R VSB 1/2
LEESBURG*      FOG       46  46 100 CALM      30.11S VSB 1
WINCHESTER     RAIN      45  45 100 CALM      30.05R
FRONT ROYAL*   CLOUDY    46  46 100 W3        30.05F
LURAY*         CLOUDY    50  50 100 NE3       30.05S
$$

VAZ048-049-060>072-079>083-271100-
CENTRAL AND SOUTH CENTRAL VIRGINIA

CITY           SKY/WX    TMP DP  RH WIND       PRES   REMARKS
RICHMOND       CLOUDY    56  54  93 S8        30.09S
CHESTERFIELD*  CLOUDY   N/A N/A N/A CALM      30.10S
PETERSBURG*    CLOUDY    55  53  91 S3        30.10S
HANOVER        CLOUDY    53  50  89 S5        30.10S
TAPPAHANNOCK*  CLOUDY    53  53 100 SE5       30.09F
QUINTON*       PTSUNNY   56  56 100 MISG      30.09F
CHARLOTTSVILLE FOG       50  49  96 CALM      30.09R VSB 1
GORDONSVILLE*  FOG       49  49 100 CALM      30.08S VSB 1/2
ORANGE*        FOG       46  46 100 CALM      30.10S VSB 1/2
LOUISA*        FOG       54  52  94 CALM      30.07S VSB 1/4
BUMPASS*       CLOUDY    50  50 100 CALM      30.08F VSB 1/2
FARMVILLE*     LGT RAIN  52  52 100 CALM      30.09R VSB 3/4
CREWE*         FAIR      53  53 100 CALM      30.09R
FORT PICKETT*  FAIR      58  54  87 S12       30.10R
CHASE CITY*    CLOUDY    59  58  94 CALM      30.10S
CLARKSVILLE*   CLOUDY    61  55  82 S5        30.10R
SOUTH HILL*    CLOUDY    57  54  89 S7        30.16S
LAWRENCEVILLE* CLOUDY    57  54  88 S8        30.11R
EMPORIA*       CLEAR     52  52 100 CALM      30.13R
$$

VAZ088>098-271100-
SOUTHEAST VIRGINIA

CITY           SKY/WX    TMP DP  RH WIND       PRES   REMARKS
NORFOLK        CLEAR     58  53  84 S7        30.12S
VIRGINIA BEACH CLEAR     57  51  80 S6        30.12S
NORFOLK NAVAL  PTCLDY    58  52  80 S6        30.13S
WEST POINT*    CLOUDY    57  54  90 SE3       30.12S
SALUDA*        PTSUNNY   51  51 100 S3        30.11S
NEWPORT NEWS   CLEAR     57  53  86 S7        30.12S
LANGLEY AFB    PTCLDY    57  54  90 S6        30.11S
FORT EUSTIS    MOCLDY    54  51  88 SE3       30.10R
WILLIAMSBURG*  PTCLDY    55  54  94 CALM      30.12S
HR EXEC AP*    FAIR      55  52  88 S6        30.11S
FRANKLIN*      MOCLDY    55  53  91 S5        30.12S
US460-WAKEFLD  CLEAR     55  54  96 S3        30.11S
$$

VAZ020-022-025-037-045-271100-
WEST CENTRAL AND SOUTHWEST VIRGINIA

CITY           SKY/WX    TMP DP  RH WIND       PRES   REMARKS
STAUNTON*      CLOUDY    50  49  97 NW3       30.08R
WAYNESBORO*    CLOUDY    53  53  99 E3        30.06R
HOT SPRINGS VA MOCLDY    50  50 100 CALM      30.08S FOG
LYNCHBURG      CLOUDY    51  50  96 CALM      30.10S FOG
DANVILLE       LGT RAIN  57  57 100 VRB5      30.10S FOG
SOUTH BOSTON*  CLOUDY    61  58  91 SW3       30.10R
MARTINSVILLE   CLOUDY    57  56  99 S3        30.11S
ROANOKE        CLOUDY    54  54 100 CALM      30.10R
BLACKSBURG     CLOUDY    58  55  90 S3        30.10S
DUBLIN*        CLOUDY    57  55  93 CALM      30.09R
MARION*        CLOUDY    54  53  96 CALM      30.10R
HILLSVILLE*    CLOUDY    55  55 100 CALM      30.09R
RICHLANDS*     PTSUNNY   58  52  81 SW5       30.06S
WISE*          CLEAR     54  46  76 S3        30.07S
ABINGDON*      MOCLDY    55  54  94 SE3       30.06S
$$

MDZ021>025-VAZ099-100-271100-
SOUTHERN MARYLAND AND THE DELMARVA PENINSULA

CITY           SKY/WX    TMP DP  RH WIND       PRES   REMARKS
PATUXENT RIVER CLOUDY    46  46 100 CALM      30.09S
BAY BRIDGE APT FOG       46  46 100 CALM      30.10S VSB 1/2
LEONARDTOWN    CLOUDY    50  48  93 CALM      30.10S
DOVER          FOG       46  46 100 SE7       30.09F VSB 3/4
GEORGETOWN     PTCLDY    46  45  96 SE6       30.11F
EASTON         CLOUDY    48  46  93 CALM      30.13S FOG
CAMBRIDGE      CLOUDY    48  48 100 CALM      30.10S
SALISBURY      CLEAR     48  48 100 S5        30.11F
OCEAN CITY     CLEAR     43  42  97 CALM      30.13F
WALLOPS ISLAND CLEAR     48  48 100 S7        30.13F
ACCOMACK*      MOCLDY    53  51  94 S6        30.12S
$$

NCZ012>017-030>032-271100-
NORTH CENTRAL AND EASTERN NORTH CAROLINA

CITY           SKY/WX    TMP DP  RH WIND       PRES   REMARKS
ROANOKE RAPIDS FAIR      52  52 100 CALM      30.13R
RALEIGH        CLOUDY    62  55  77 SW9       30.12R
ELIZABETH CITY MOCLDY    56  53  90 S3        30.14S
AHOSKIE*         N/A     53  53  98 CALM      30.14R FOG
EDENTON*       CLEAR     55  53  92 CALM      30.15R
CURRITUCK*     PTCLDY    56  56 100 CALM      30.15S
KILL DEVIL HLS NOT AVBL
MANTEO         CLEAR     56  54  91 CALM      30.16R
CAPE HATTERAS  CLEAR     66  53  63 S7        30.14S
TARBORO*       NOT AVBL
GOLDSBORO      CLEAR     56  56 100 CALM      30.11R
WASHINGTON     CLEAR     55  54  96 CALM      30.14S
GREENVILLE     CLEAR     54  54 100 CALM      30.14S FOG
NEW BERN       CLEAR     49  49 100 CALM      30.15R
WILMINGTON     CLEAR     51  51 100 CALM      30.12S
$$

VAZ048-271100-
ELSEWHERE

CITY           SKY/WX    TMP DP  RH WIND       PRES   REMARKS
HARRISBURG PA  LGT RAIN  42  41  96 E5        30.09F
BALTIMORE      FOG       44  44 100 E3        30.10S VSB 1/4
ANNAPOLIS      FOG       47  46  97 CALM      30.10F VSB 1/4
ANDREWS AFB    FOG       45  45 100 CALM      30.09R VSB 1/2
PHILADELPHIA   FOG       42  41  96 E7        30.12F VSB 3/4
HENDERSON NC   CLOUDY    56  52  85 S7        30.11R
GREENSBORO     CLOUDY    58  58 100 S10       30.10S
ROCKY MOUNT    CLEAR     52  52 100 CALM      30.12S
$$

VAZ100-271100-
MARINE

STATION/POSITION TIME  TEMP    WIND        PRES    WAVE   SWELL
                       AIR SEA DIR/SP/G            HT/PER HT/PER
                 (UTC) (F)     (DEG/KT/KT) (MB)    (FT/S) (FT/S)
CAPE MAY NJ      0948   45 44  110/ 10/ 12 1019.3F
LEWES DE         0948   45 44  140/  6/  9 1019.5F
OCEAN-CITY-INLET 0948   44 45  160/  2/  3 1020.5F
WACHAPREAGUE VA  0948   50 53  210/  3/  4 1019.7F
THOMAS POINT MD  1000   45 45  100/  2/  2   N/A
GOOSES REEF MD   1000   46 45  210/  4/  4 1019.7
COVE POINT MD    0948   45     190/  7/  9 1019.6F
SOLOMONS ISLAND  0948   47 47  100/  5/  6   N/A
BISHOPS HEAD MD  0948   49 50  160/ 11/ 11 1019.3F
PINEY POINT MD   0948          130/  6/  6   N/A
POTOMAC MD       1000   48 46  150/  6/  8 1018.1    0
CAMBRIDGE MD     0948   49 46   CALM  /  2 1018.5F
LEWISETTA VA     0948   52 50  200/  7/  8 1018.6F
RAPPAHANNOCK LGT 0948          160/ 11/ 11 1020.1F
STINGRAY PT      0950   50     180/  8/  8 1020.0S
YORK RVR RNG VA  0948   54     190/ 10/ 10 1019.1R
YORKTOWN VA      0948   59 50  200/  5/  9 1019.3R
JAMESTOWN VA     1000   57 54  160/  4/  6   N/A     0
DOMINION TERM VA 0948   56     160/  5/  5 1019.8F
KIPTOPEKE VA     0948      49  170/ 11/ 11   N/A
CHES BAY BRIDGE  0948   56 49  180/ 10/ 11 1019.9F
CAPE HENRY VA    0948   59     180/  8/ 10   N/A
WILLOUBY STN VA  0948   58     190/ 12/ 13 1020.6S
S CRANEY ISL VA  0948   55     180/  7/  7 1019.8R
CAPE HENRY BUOY  0942      50                N/A     3/ 7   2/18
CAPE CHARLES BUO 0951      48                N/A     3/ 7
OFFSHORE WE BUOY 0951      49                N/A     4/ 7
64NM E OF VA BCH 0950   55 51  180/  8/  8 1020.7F   3/ 8   3/ 8
DUCK PIER NC     0948   55 50  190/  5/  6 1020.4R
44100 DUCK FRF   0935      49                N/A     3/ 7   2/18
44056 DUCK FRF   0930      51                N/A     3/ 8
OREGON INLET NC  0942   58 56  140/  4/  5 1020.8R
HATTERAS NC      0948   67 60  160/ 10/ 12 1020.4S
DIAMOND SHLS NC  0950   70 76  190/ 12/ 16 1020.8F   3/10   3/10
CAPE LOOKOUT NC  1000   65     160/  3/  4 1020.2R
$$




USA.gov is the U.S. government's official web portal to all federal, state and local government web resources and services.